Location: Newark
(23.3970°S, 47.6010°W)
Time: 08:54:18
(UTC+00:00)

deb Explorer IX - Pass Details

Date: 23 February 2020
Orbit: 547 x 1101 km, 38.8° (Epoch: 28 March)

Event Time Altitude Azimuth Distance (km) Brightness Sun altitude
Rises 08:10:30 0° 244° (WSW) 3,867 - -12.5°
Exits shadow 08:12:27 - 248° (WSW) 3,202 ? -12.0°
Reaches altitude 10° 08:13:29 10° 250° (WSW) 2,859 ? -11.8°
Maximum altitude 08:20:00 43° 319° (NW) 1,322 ? -10.4°
Drops below altitude 10° 08:25:43 10° 29° (NNE) 2,511 ? -9.1°
Sets 08:28:12 0° 36° (NE) 3,355 ? -8.5°
